Regional Weather Roundup
Issued by NWS Midland/Odessa, TX

Skip options and go directly to product.
Home | Oldest Version | Previous Version | Current Version | All | Text Only | Save Text | Print | Product List | Glossary Off

Skip product version selection by date and time.   

082
ASUS44 KMAF 291010
RWRMAF
MIDLAND AREA WEATHER ROUNDUP
NATIONAL WEATHER SERVICE MIDLAND TX
500 AM CDT FRI APR 29 2016

...IN SOUTHWEST TEXAS AND SOUTHEAST NEW MEXICO...

CITY           SKY/WX    TMP DP  RH WIND       PRES   REMARKS
ALPINE         CLEAR     58  35  42 S7        29.83S
ANDREWS        FAIR      69  64  83 SW10G16   29.68R
ARTESIA        PTCLDY    61  25  25 W9        29.70R
BIG SPRING     CLOUDY    70  64  80 SE20G28   29.67F
CARLSBAD       CLEAR     63  28  26 NW9       29.68R
DRYDEN           N/A     73  70  90 SE9       29.66R
FORT STOCKTON  CLEAR     66  61  84 S3        29.71R
GUAD PASS      CLEAR     57  26  30 W31G45    29.80S
HOBBS          CLEAR     64  64 100 SW7       29.70R FOG
MARFA          CLEAR     48  26  42 W6        29.83R
MIDLAND AIRPK  MOCLDY    73  66  76 S15G23    29.68S
MIDLAND INTL   CLOUDY    73  65  75 S17G26    29.66R HAZE
ODESSA         PTCLDY    72  64  76 S17G25    29.67F HAZE
PECOS          CLEAR     58  26  28 SW7       29.68R
PRESIDIO       FAIR      70  14  11 N10       29.71R
SEMINOLE       CLOUDY    68  63  82 S9        29.68S
SNYDER           N/A     70  66  89 SE13      29.67F
WINK           CLEAR     63  47  55 W9        29.65R
$$
...OTHER STATIONS IN TEXAS...

CITY           SKY/WX    TMP DP  RH WIND       PRES   REMARKS
ABILENE        MOCLDY    70  67  90 SE14      29.67F FOG
AMARILLO       CLOUDY    54  52  93 E21G26    29.72F
AUSTIN         CLOUDY    75  73  93 SE5       29.71F
BROWNSVILLE    CLOUDY    80  77  90 SE13      29.68S FOG
CORPUS CHRISTI CLOUDY    79  76  90 SE18      29.69F
DALLAS FTW     MOCLDY    74  68  81 S10       29.69F
DEL RIO        LGT RAIN  74  73  97 SE12      29.65S FOG
EL PASO        CLEAR     61  25  25 NW25G35   29.79R
HOUSTON INT    CLOUDY    74  72  93 SE12      29.78S FOG
LUBBOCK        CLOUDY    65  61  87 SE16      29.69S
SAN ANGELO     CLOUDY    72  68  87 SE7       29.68S FOG
SAN ANTONIO    CLOUDY    74  71  91 SE10      29.71F
WACO           MOCLDY    74  70  87 S12       29.70F
WICHITA FALLS  NOT AVBL
$$
...OTHER LOCATIONS IN NEW MEXICO...

CITY           SKY/WX    TMP DP  RH WIND       PRES   REMARKS
ALAMAGORDO     CLOUDY    57  25  28 SW3       29.82R
ALBUQUERQUE    RAIN      44  39  82 NE3       29.89R
CANNON AFB     CLOUDY    61  61 100 S7        29.69F
CLOVIS         CLOUDY    57  52  82 E7        29.70F THUNDER
HOLLOMAN AFB   CLOUDY    60  27  27 VRB2      29.80R
ROSWELL        CLOUDY    60  40  47 N10       29.69R
RUIDOSO          N/A     48  23  37 W22G28    29.87R
SANTA FE       CLOUDY    47  25  42 SW18G24   29.85R WCI  40
TRUTH OR CONSE CLEAR     50  30  46 NW6       29.81S
TUCUMCARI      CLOUDY    50  44  80 N18       29.77R
$$

USA.gov is the U.S. government's official web portal to all federal, state and local government web resources and services.